Location: Biltmore Gardens
(41.6070°N, 83.4666°W)
Time: 08:43:33
(UTC+00:00)

A-11 Canister half - All Passes

Search period start: 20 April 2021 00:00
Search period end: 30 April 2021 00:00
Orbit: 1515 x 1685 km, 47.2° (Epoch: 19 April)

Date Brightness Start Highest point End Pass type
(mag) Time Alt. Az. Time Alt. Az. Time Alt. Az.
20 Apr - 00:22:16 10° S 00:29:06 23° SE 00:36:01 10° E daylight
20 Apr - 02:23:27 10° SW 02:32:44 72° SE 02:42:22 10° ENE visible
20 Apr - 04:28:31 10° W 04:37:58 67° N 04:47:49 10° ENE visible
20 Apr - 06:34:15 10° WNW 06:43:57 70° NNE 06:53:58 10° E visible
20 Apr - 08:39:25 10° WNW 08:49:08 65° SW 08:59:05 10° SE visible
20 Apr - 10:46:01 10° W 10:52:49 21° SW 10:59:44 10° S daylight
20 Apr - 23:59:48 10° S 00:06:17 22° SE 00:12:52 10° E daylight
21 Apr - 02:00:37 10° SW 02:09:50 68° SE 02:19:23 10° ENE visible
21 Apr - 04:05:33 10° W 04:14:59 68° NNW 04:24:49 10° ENE visible
21 Apr - 06:11:19 10° WNW 06:20:58 69° NNE 06:30:57 10° E visible
21 Apr - 08:16:29 10° WNW 08:26:13 68° SW 08:36:12 10° SE visible
21 Apr - 10:22:51 10° W 10:29:59 23° SW 10:37:14 10° S daylight
21 Apr - 23:37:23 10° SSE 23:43:29 20° SE 23:49:40 10° E daylight
22 Apr - 01:37:48 10° SW 01:46:57 65° SE 01:56:25 10° ENE visible
22 Apr - 03:42:36 10° W 03:52:01 69° NNW 04:01:49 10° ENE visible
22 Apr - 05:48:22 10° WNW 05:57:58 67° NNE 06:07:56 10° E visible
22 Apr - 07:53:34 10° WNW 08:03:17 71° SW 08:13:18 10° SE visible
22 Apr - 09:59:42 10° W 10:07:09 25° SW 10:14:42 10° S visible
22 Apr - 23:15:01 10° SSE 23:20:41 18° SE 23:26:26 10° E daylight
23 Apr - 01:14:59 10° SW 01:24:04 62° SE 01:33:28 10° ENE visible
23 Apr - 03:19:39 10° W 03:29:03 70° NNW 03:38:49 10° ENE visible
23 Apr - 05:25:26 10° WNW 05:34:59 66° N 05:44:54 10° E visible
23 Apr - 07:30:38 10° WNW 07:40:21 74° SSW 07:50:23 10° SE visible
23 Apr - 09:36:36 10° WNW 09:44:17 26° SW 09:52:07 10° S visible
23 Apr - 22:52:42 10° SSE 22:57:54 16° SE 23:03:08 10° E daylight
24 Apr - 00:52:11 10° SW 01:01:12 59° SE 01:10:29 10° ENE visible
24 Apr - 02:56:42 10° W 03:06:05 72° NNW 03:15:50 10° ENE visible
24 Apr - 05:02:29 10° WNW 05:12:00 66° N 05:21:52 10° E visible
24 Apr - 07:07:42 10° WNW 07:17:25 77° SSW 07:27:28 10° SE visible
24 Apr - 09:13:31 10° WNW 09:21:27 28° SW 09:29:31 10° S visible
24 Apr - 22:30:29 10° SSE 22:35:06 15° ESE 22:39:45 10° E daylight
25 Apr - 00:29:23 10° SW 00:38:19 56° SE 00:47:31 10° ENE daylight
25 Apr - 02:33:46 10° WSW 02:43:08 74° NNW 02:52:52 10° ENE visible
25 Apr - 04:39:32 10° WNW 04:49:01 65° N 04:58:50 10° E visible
25 Apr - 06:44:47 10° WNW 06:54:29 80° SSW 07:04:32 10° SE visible
25 Apr - 08:50:29 10° WNW 08:58:35 30° SW 09:06:52 10° S visible
25 Apr - 22:08:24 10° SSE 22:12:19 13° ESE 22:16:15 10° E daylight
26 Apr - 00:06:36 10° SSW 00:15:28 53° SE 00:24:32 10° ENE daylight
26 Apr - 02:10:49 10° WSW 02:20:10 75° NNW 02:29:53 10° ENE visible
26 Apr - 04:16:35 10° WNW 04:26:02 64° N 04:35:49 10° E visible
26 Apr - 06:21:52 10° WNW 06:31:33 83° SSW 06:41:35 10° ESE visible
26 Apr - 08:27:26 10° WNW 08:35:43 32° SW 08:44:12 10° S visible
26 Apr - 21:46:32 10° SE 21:49:33 12° ESE 21:52:33 10° ESE daylight
26 Apr - 23:43:51 10° SSW 23:52:37 50° SE 00:01:34 10° ENE daylight
27 Apr - 01:47:53 10° WSW 01:57:13 77° NNW 02:06:54 10° ENE visible
27 Apr - 03:53:39 10° WNW 04:03:03 63° N 04:12:48 10° E visible
27 Apr - 05:58:56 10° WNW 06:08:37 86° SSW 06:18:38 10° ESE visible
27 Apr - 08:04:25 10° WNW 08:12:52 34° SW 08:21:32 10° SSE visible
27 Apr - 21:25:14 10° SE 21:26:46 10° ESE 21:28:18 10° ESE daylight
27 Apr - 23:21:06 10° SSW 23:29:45 47° SE 23:38:35 10° ENE daylight
28 Apr - 01:24:57 10° WSW 01:34:17 79° NNW 01:43:56 10° ENE visible
28 Apr - 03:30:42 10° WNW 03:40:04 63° N 03:49:46 10° E visible
28 Apr - 05:36:02 10° WNW 05:45:41 89° SSW 05:55:41 10° ESE visible
28 Apr - 07:41:25 10° WNW 07:50:00 37° SW 07:58:49 10° SSE visible
28 Apr - 22:58:22 10° SSW 23:06:54 44° SE 23:15:36 10° ENE daylight
29 Apr - 01:02:02 10° WSW 01:11:21 82° NNW 01:20:58 10° ENE visible
29 Apr - 03:07:45 10° W 03:17:05 63° N 03:26:45 10° E visible
29 Apr - 05:13:07 10° WNW 05:22:44 88° NNE 05:32:43 10° ESE visible
29 Apr - 07:18:25 10° WNW 07:27:07 39° SW 07:36:05 10° SSE visible
29 Apr - 22:35:39 10° SSW 22:44:04 41° SE 22:52:37 10° ENE daylight
